Darstellungsparameter: Aktuell verwendete Einstellungen:
Skalierung der Graphiken ... ?
xyx+y,   Skalierungsfaktor:      Skalierung: Modus: x, Faktor: 1
Darstellungszeitraum ... ?
Vom - - bis: - -   Zeitraum: 06.03.2018 - 05.09.2018
Min/Max/Avg-Anzeige ... ?
Zeige MMA aktuell
Zeige MMA Monat
Zeige MMA alles
Zeige --A aktuell
Zeige --A Monat
Zeige --A alles
Keine MMA-Anzeige
MMA:
Keine MMA-Graphiken
MMA-Basis: 06.03.2018 - 05.09.2018
Quicknavigation für Darstellung... ?
Tage:      1T, 2T, 3T, 5T -1T -2T -3T -5T +1T +2T +3T +5T
Wochen: 1W, 2W, 3W -1W -2W -3W +1W +2W +3W
Monate: 1M, 3M, 6M -1M -3M -6M +1M +3M +6M
Jahre:    1J, 3J, 5J, 10J -1J -3J -5J -10J +1J +3J +5J +10J
Nutze für die Darstellung ... ?
Originaldaten oder ...
Mittelwerte Minima Maxima auf...
Stundenbasis Tagesbasis Wochenbasis
Monatsbasis Jahresbasis      Datenbasis: Mittelwerte auf Tagesbasis
Darstellen als:
Statistik (Auto) Statistik J:M      Darstellung:
Zur Graphik,    zurück zur Übersicht aller Sensoren.
 
Tabellarische Datenbersicht: ?
 
Sensor: Nr:Datum:Temp:Feuchte:Taupunkt:
Aussen-T/F 1 06-03-2018 00:00:00 4.90694 C 86.9583 % 2.92 C
2 07-03-2018 00:00:00 5.39792 C 90.0556 % 3.9 C
3 08-03-2018 00:00:00 6.19653 C 83.8368 % 3.67 C
4 09-03-2018 00:00:00 5.56528 C 93.9514 % 4.67 C
5 10-03-2018 00:00:00 10.03125 C 92.4792 % 8.87 C
6 11-03-2018 00:00:00 10.51493 C 91.3854 % 9.17 C
7 12-03-2018 00:00:00 9.7 C 90.2813 % 8.19 C
8 13-03-2018 00:00:00 7.76667 C 88.1215 % 5.93 C
9 14-03-2018 00:00:00 6.86458 C 83.6076 % 4.29 C
10 15-03-2018 00:00:00 6.40382 C 83.6319 % 3.84 C
11 16-03-2018 00:00:00 7.64097 C 94.7813 % 6.86 C
12 17-03-2018 00:00:00 -0.44516 C 83.0573 % -2.96 C
13 18-03-2018 00:00:00 -1.64028 C 75.3299 % -5.42 C
14 19-03-2018 00:00:00 -0.54479 C 65.7778 % -6.15 C
15 20-03-2018 00:00:00 0.29653 C 73.5035 % -3.87 C
16 21-03-2018 00:00:00 1.2059 C 76.4132 % -2.47 C
17 22-03-2018 00:00:00 3.06319 C 89.6667 % 1.54 C
18 23-03-2018 00:00:00 6.14028 C 89.0799 % 4.48 C
19 24-03-2018 00:00:00 5.20069 C 79.8715 % 2.02 C
20 25-03-2018 00:00:00 5.42862 C 76.5217 % 1.64 C
21 26-03-2018 00:00:00 7.61146 C 73.0313 % 3.1 C
22 27-03-2018 00:00:00 5.82222 C 83.6181 % 3.27 C
23 28-03-2018 00:00:00 8.50799 C 92.0278 % 7.29 C
24 29-03-2018 00:00:00 7.11424 C 75.6701 % 3.12 C
25 30-03-2018 00:00:00 6.82813 C 81.6910 % 3.92 C
Sensor: Nr:Datum:Temp:Feuchte:Taupunkt:
Aussen-T/F 26 31-03-2018 00:00:00 8.09792 C 78.7083 % 4.63 C
27 01-04-2018 00:00:00 7.66979 C 81.5451 % 4.72 C
28 02-04-2018 00:00:00 8.78611 C 74.8715 % 4.58 C
29 03-04-2018 00:00:00 13.35 C 67.7257 % 7.51 C
30 04-04-2018 00:00:00 11.17187 C 85.0486 % 8.76 C
31 05-04-2018 00:00:00 8.16042 C 84.2049 % 5.66 C
32 06-04-2018 00:00:00 6.97187 C 72.9167 % 2.46 C
33 07-04-2018 00:00:00 12.50035 C 66.5174 % 6.44 C
34 08-04-2018 00:00:00 14.90417 C 67.3368 % 8.91 C
35 09-04-2018 00:00:00 13.73333 C 72.7188 % 8.93 C
36 10-04-2018 00:00:00 13.3816 C 78.1875 % 9.66 C
37 11-04-2018 00:00:00 11.50035 C 87.5035 % 9.5 C
38 12-04-2018 00:00:00 13.06493 C 80.5000 % 9.79 C
39 13-04-2018 00:00:00 10.32188 C 88.1458 % 8.45 C
40 14-04-2018 00:00:00 13.08403 C 76.3056 % 9.01 C
41 15-04-2018 00:00:00 14.37465 C 81.8542 % 11.32 C
42 16-04-2018 00:00:00 13.42882 C 78.5417 % 9.78 C
43 17-04-2018 00:00:00 13.72569 C 74.7569 % 9.33 C
44 18-04-2018 00:00:00 15.73264 C 69.7882 % 10.23 C
45 19-04-2018 00:00:00 17.21806 C 66.2847 % 10.88 C
46 20-04-2018 00:00:00 17.08681 C 67.8229 % 11.1 C
47 21-04-2018 00:00:00 18.09931 C 71.2639 % 12.82 C
48 22-04-2018 00:00:00 18.53681 C 73.1042 % 13.63 C
49 23-04-2018 00:00:00 18.01181 C 70.6181 % 12.6 C
50 24-04-2018 00:00:00 14.03854 C 72.5938 % 9.2 C
Sensor: Nr:Datum:Temp:Feuchte:Taupunkt:
Aussen-T/F 51 25-04-2018 00:00:00 13.47917 C 75.5694 % 9.25 C
52 26-04-2018 00:00:00 11.09167 C 65.0868 % 4.79 C
53 27-04-2018 00:00:00 11.96181 C 67.8333 % 6.21 C
54 28-04-2018 00:00:00 12.62917 C 72.8854 % 7.9 C
55 29-04-2018 00:00:00 14.24792 C 85.8194 % 11.91 C
56 30-04-2018 00:00:00 13.44931 C 77.7604 % 9.65 C
57 01-05-2018 00:00:00 9.59063 C 69.6354 % 4.32 C
58 02-05-2018 00:00:00 9.44549 C 75.6910 % 5.38 C
59 03-05-2018 00:00:00 12.35347 C 68.5729 % 6.74 C
60 04-05-2018 00:00:00 13.14618 C 65.4722 % 6.83 C
61 05-05-2018 00:00:00 15.50764 C 61.2708 % 8.09 C
62 06-05-2018 00:00:00 17.0059 C 57.6563 % 8.6 C
63 07-05-2018 00:00:00 17.60312 C 61.7674 % 10.19 C
64 08-05-2018 00:00:00 18.08264 C 62.5556 % 10.83 C
65 09-05-2018 00:00:00 17.125 C 71.3160 % 11.89 C
66 10-05-2018 00:00:00 14.09271 C 87.0729 % 11.98 C
67 11-05-2018 00:00:00 14.47951 C 77.2778 % 10.55 C
68 12-05-2018 00:00:00 16.39236 C 75.1597 % 11.99 C
69 13-05-2018 00:00:00 14.62278 C 93.1317 % 13.53 C
70 14-05-2018 00:00:00 16.77361 C 89.0556 % 14.96 C
71 15-05-2018 00:00:00 15.91597 C 75.1875 % 11.53 C
72 16-05-2018 00:00:00 15.4941 C 83.2118 % 12.66 C
73 17-05-2018 00:00:00 13.78333 C 73.6285 % 9.16 C
74 18-05-2018 00:00:00 12.14792 C 74.4757 % 7.75 C
75 19-05-2018 00:00:00 13.63299 C 73.7118 % 9.03 C
Sensor: Nr:Datum:Temp:Feuchte:Taupunkt:
Aussen-T/F 76 20-05-2018 00:00:00 14.00278 C 84.2917 % 11.4 C
77 21-05-2018 00:00:00 17.43819 C 78.1806 % 13.6 C
78 22-05-2018 00:00:00 16.97917 C 82.6944 % 14.02 C
79 23-05-2018 00:00:00 17.30243 C 88.5104 % 15.39 C
80 24-05-2018 00:00:00 17.125 C 87.8507 % 15.1 C
81 25-05-2018 00:00:00 19.81944 C 80.2535 % 16.32 C
82 26-05-2018 00:00:00 20.84826 C 76.3958 % 16.54 C
83 27-05-2018 00:00:00 20.3191 C 81.4236 % 17.03 C
84 28-05-2018 00:00:00 21.47083 C 81.6424 % 18.2 C
85 29-05-2018 00:00:00 20.77292 C 85.9514 % 18.34 C
86 30-05-2018 00:00:00 21.53403 C 77.5799 % 17.45 C
87 31-05-2018 00:00:00 22.62083 C 74.5313 % 17.86 C
88 01-06-2018 00:00:00 19.10729 C 88.6667 % 17.19 C
89 02-06-2018 00:00:00 19.22917 C 81.5243 % 15.99 C
90 03-06-2018 00:00:00 19.42708 C 77.5903 % 15.41 C
91 04-06-2018 00:00:00 20.95938 C 74.2257 % 16.2 C
92 05-06-2018 00:00:00 20.70035 C 77.2569 % 16.58 C
93 06-06-2018 00:00:00 21.09375 C 74.2222 % 16.33 C
94 07-06-2018 00:00:00 21.15174 C 80.5868 % 17.68 C
95 08-06-2018 00:00:00 20.94375 C 84.2361 % 18.18 C
96 09-06-2018 00:00:00 21.9125 C 83.9896 % 19.08 C
97 10-06-2018 00:00:00 21.38239 C 86.1831 % 18.98 C
98 11-06-2018 00:00:00 19.19444 C 93.4549 % 18.11 C
99 12-06-2018 00:00:00 16.41979 C 90.3194 % 14.83 C
100 13-06-2018 00:00:00 14.8941 C 79.6285 % 11.41 C
Sensor: Nr:Datum:Temp:Feuchte:Taupunkt:
Aussen-T/F 101 14-06-2018 00:00:00 14.94132 C 80.6806 % 11.65 C
102 15-06-2018 00:00:00 17.84236 C 88.0243 % 15.83 C
103 16-06-2018 00:00:00 19.99306 C 78.6493 % 16.17 C
104 17-06-2018 00:00:00 17.94167 C 75.1979 % 13.49 C
105 18-06-2018 00:00:00 17.81667 C 77.9757 % 13.93 C
106 19-06-2018 00:00:00 18.89201 C 84.5799 % 16.24 C
107 20-06-2018 00:00:00 23.07639 C 72.0069 % 17.75 C
108 21-06-2018 00:00:00 17.92639 C 69.4514 % 12.26 C
109 22-06-2018 00:00:00 13.74097 C 68.4549 % 8.04 C
110 23-06-2018 00:00:00 13.76424 C 76.4514 % 9.7 C
111 24-06-2018 00:00:00 15.88264 C 72.8299 % 11.02 C
112 25-06-2018 00:00:00 17.09201 C 78.1806 % 13.26 C
113 26-06-2018 00:00:00 17.67396 C 74.6806 % 13.13 C
114 27-06-2018 00:00:00 19.15694 C 67.6979 % 13.05 C
115 28-06-2018 00:00:00 20.71076 C 61.1806 % 12.97 C
116 29-06-2018 00:00:00 24.11424 C 56.0451 % 14.8 C
117 30-06-2018 00:00:00 22.06215 C 56.9201 % 13.13 C
118 01-07-2018 00:00:00 20.86597 C 42.7396 % 7.74 C
119 02-07-2018 00:00:00 20.44792 C 45.9861 % 8.44 C
120 03-07-2018 00:00:00 20.73299 C 50.1319 % 9.98 C
121 04-07-2018 00:00:00 18.84167 C 80.7778 % 15.47 C
122 05-07-2018 00:00:00 19.41111 C 88.5799 % 17.48 C
123 06-07-2018 00:00:00 20.03056 C 75.7014 % 15.61 C
124 07-07-2018 00:00:00 20.66701 C 67.2326 % 14.38 C
125 08-07-2018 00:00:00 19.71181 C 58.3160 % 11.3 C
Sensor: Nr:Datum:Temp:Feuchte:Taupunkt:
Aussen-T/F 126 09-07-2018 00:00:00 19.32361 C 67.3299 % 13.12 C
127 10-07-2018 00:00:00 17.13715 C 73.0729 % 12.28 C
128 11-07-2018 00:00:00 16.10729 C 82.2396 % 13.08 C
129 12-07-2018 00:00:00 19.59688 C 80.3924 % 16.13 C
130 13-07-2018 00:00:00 19.71166 C 77.4240 % 15.65 C
131 14-07-2018 00:00:00 21.51493 C 67.9236 % 15.34 C
132 15-07-2018 00:00:00 21.63021 C 64.0521 % 14.54 C
133 16-07-2018 00:00:00 22.30868 C 61.5347 % 14.56 C
134 17-07-2018 00:00:00 21.01771 C 65.8507 % 14.39 C
135 18-07-2018 00:00:00 20.29479 C 65.8750 % 13.71 C
136 19-07-2018 00:00:00 20.92431 C 60.5069 % 13 C
137 20-07-2018 00:00:00 21.5559 C 61.6319 % 13.88 C
138 21-07-2018 00:00:00 20.6125 C 77.3958 % 16.52 C
139 22-07-2018 00:00:00 21.61458 C 70.0486 % 15.92 C
140 23-07-2018 00:00:00 22.37917 C 67.0868 % 15.97 C
141 24-07-2018 00:00:00 23.70278 C 63.7465 % 16.43 C
142 25-07-2018 00:00:00 25.50069 C 57.3160 % 16.44 C
143 26-07-2018 00:00:00 27.18785 C 54.2326 % 17.14 C
144 27-07-2018 00:00:00 26.11146 C 50.4861 % 15.03 C
145 28-07-2018 00:00:00 21.97743 C 76.3924 % 17.63 C
146 29-07-2018 00:00:00 23.50521 C 66.0451 % 16.8 C
147 30-07-2018 00:00:00 24.29931 C 64.4410 % 17.16 C
148 31-07-2018 00:00:00 25.46875 C 61.9722 % 17.65 C
149 01-08-2018 00:00:00 20.74271 C 87.4931 % 18.59 C
150 02-08-2018 00:00:00 23.73056 C 74.2257 % 18.87 C
Sensor: Nr:Datum:Temp:Feuchte:Taupunkt:
Aussen-T/F 151 03-08-2018 00:00:00 26.4684 C 61.0278 % 18.34 C
152 04-08-2018 00:00:00 26.38714 C 57.9821 % 17.45 C
153 05-08-2018 00:00:00 24.70486 C 59.6424 % 16.32 C
154 06-08-2018 00:00:00 24.16944 C 57.6563 % 15.29 C
155 07-08-2018 00:00:00 26.73646 C 55.5104 % 17.09 C
156 08-08-2018 00:00:00 25.29618 C 61.3021 % 17.31 C
157 09-08-2018 00:00:00 20.57778 C 82.7639 % 17.54 C
158 10-08-2018 00:00:00 18.35486 C 65.3924 % 11.76 C
159 11-08-2018 00:00:00 18.37083 C 59.8611 % 10.44 C
160 12-08-2018 00:00:00 18.15451 C 63.0729 % 11.02 C
161 13-08-2018 00:00:00 17.68854 C 81.8924 % 14.56 C
162 14-08-2018 00:00:00 18.53958 C 84.6563 % 15.91 C
163 15-08-2018 00:00:00 19.375 C 79.2465 % 15.69 C
164 16-08-2018 00:00:00 20.74444 C 71.2743 % 15.36 C
165 17-08-2018 00:00:00 19.75903 C 76.6632 % 15.54 C
166 18-08-2018 00:00:00 18.88785 C 68.7326 % 13.02 C
167 19-08-2018 00:00:00 20.30521 C 67.4132 % 14.07 C
168 20-08-2018 00:00:00 20.84444 C 73.5938 % 15.95 C
169 21-08-2018 00:00:00 21.96979 C 70.6528 % 16.39 C
170 22-08-2018 00:00:00 23.24757 C 65.7500 % 16.48 C
171 23-08-2018 00:00:00 22.88681 C 69.0660 % 16.91 C
172 24-08-2018 00:00:00 19.03368 C 65.5556 % 12.44 C
173 25-08-2018 00:00:00 14.525 C 69.8438 % 9.09 C
174 26-08-2018 00:00:00 13.80556 C 67.7882 % 7.96 C
175 27-08-2018 00:00:00 18.12604 C 70.1493 % 12.6 C
Sensor: Nr:Datum:Temp:Feuchte:Taupunkt:
Aussen-T/F 176 28-08-2018 00:00:00 18.12917 C 67.6632 % 12.06 C
177 29-08-2018 00:00:00 17.15556 C 80.1528 % 13.71 C
178 30-08-2018 00:00:00 17.22778 C 75.0799 % 12.78 C
179 31-08-2018 00:00:00 15.05521 C 72.2951 % 10.11 C
180 01-09-2018 00:00:00 14.30833 C 69.0799 % 8.72 C
181 02-09-2018 00:00:00 14.27188 C 76.5347 % 10.21 C
182 03-09-2018 00:00:00 18.05417 C 80.5556 % 14.66 C
183 04-09-2018 00:00:00 20.01736 C 79.3507 % 16.33 C
184 05-09-2018 00:00:00 20.91701 C 73.3229 % 15.97 C

Maximal/Minimal-Werte vom 06.03.2018 - 05.09.2018

Sensor Min Max Avg
Temp
(Aussen-T/F)
-5.4 °C
20-03-2018  05:45:00
38.4 °C
07-08-2018  18:10:00
16.3 °C
Feuchte
(Aussen-T/F)
18 %
03-07-2018  17:25:00
98 %
10-03-2018  08:15:00
74.47 %
Taupunkt
(Aussen-T/F)
-6.15 C
19-03-2018  00:00:00
19.08 C
09-06-2018  00:00:00
11.52 C

Die Daten stammen von einer Davis Vantage Pro 2 Wetter-Station und werden unter Linux mit der Software wview2wettercgi und aufbereitet. Alle Angaben erfolgen ohne Gewähr für ihre Vollständigkeit oder Richtigkeit.
Kontakt: Rainer Krienke krienke@uni-koblenz.de . Meine Webseiten an der Uni Koblenz oder privat.
Version: $Revision: 0.78 $